Regional Weather Roundup
Issued by NWS Wakefield, VA

Home | Current Version | Previous Version | Graphics & Text | Print | Product List | Glossary On
Versions: 1 2 3 4 5 6 7 8 9 10 11 12 13 14 15 16 17 18 19 20 21 22 23 24 25 26 27 28 29 30 31 32 33 34 35 36 37 38 39 40 41 42 43 44 45 46 47 48 49 50
000
ASUS41 KAKQ 260610
RWRAKQ

REGIONAL WEATHER ROUNDUP
NATIONAL WEATHER SERVICE WAKEFIELD VA
100 AM EST MON JAN 26 2015

Note: "fair" indicates few or no clouds below 12,000 feet with no
significant weather and/or obstructions to visibility. * = Denotes
station may not report precipitation (e.g., rain,snow,etc.),
thunder or fog.

VAZ042-051-052>054-056-260700-
NORTHERN VIRGINIA

CITY           SKY/WX    TMP DP  RH WIND       PRES   REMARKS
WASH NATIONAL  CLOUDY    45  32  60 E5        29.84F
DULLES         CLOUDY    42  32  67 E3        29.82F
FORT BELVOIR   CLOUDY    41  33  74 SE3       29.84F
QUANTICO       CLOUDY    40  33  76 SE3       29.84F
FREDERICKSBRG* CLOUDY    40  35  82 CALM      29.81F
STAFFORD*      CLOUDY    39  32  78 CALM      29.85F
WARRENTON      CLOUDY    40  38  93 CALM      29.80F
CULPEPER*      CLOUDY    37  36  93 CALM      29.81F
MANASSAS*      CLOUDY    43  36  75 SE5       29.81F
LEESBURG*      CLOUDY    37  37 100 CALM      29.83S
WINCHESTER     LGT RAIN  37  34  87 N3        29.79F
FRONT ROYAL*   CLOUDY    36  32  87 NW5       29.78S
LURAY*         CLOUDY    36  36 100 CALM      29.76F
$$

VAZ048-049-060>072-079>083-260700-
CENTRAL AND SOUTH CENTRAL VIRGINIA

CITY           SKY/WX    TMP DP  RH WIND       PRES   REMARKS
RICHMOND       CLOUDY    41  35  79 SE6       29.81F
CHESTERFIELD*  MOCLDY    41  27  56 SE7       29.81F
PETERSBURG*    CLOUDY    42  35  76 CALM      29.81F
HANOVER        CLOUDY    42  33  70 VRB3      29.82F
TAPPAHANNOCK*  CLOUDY    41  31  68 SE3       29.84F
QUINTON*       MOCLDY    40  34  78 SE5       29.82F
CHARLOTTSVILLE CLOUDY    37  32  82 NE5       29.77F
GORDONSVILLE*  CLOUDY    32  31  96 CALM      29.78F
ORANGE*        CLOUDY    36  34  93 CALM      29.80F
LOUISA*        CLOUDY    43  36  75 CALM      29.77F
BUMPASS*       CLOUDY    40  33  75 E7        29.79F
FARMVILLE*     CLOUDY    46  35  66 SW5       29.76F
CREWE*         CLOUDY    43  34  72 S6        29.77F
FORT PICKETT*  MOCLDY    42  34  75 S6        29.78F
CHASE CITY*    CLOUDY    44  38  79 SE5       29.75F
CLARKSVILLE*   CLOUDY    43  34  70 S5        29.75F
SOUTH HILL*    CLOUDY    41  34  76 S5        29.83F
LAWRENCEVILLE* FAIR      39  35  85 SE3       29.79F
EMPORIA*       MOCLDY    36  34  93 CALM      29.82F
$$

VAZ088>098-260700-
SOUTHEAST VIRGINIA

CITY           SKY/WX    TMP DP  RH WIND       PRES   REMARKS
NORFOLK        MOCLDY    38  32  79 CALM      29.86F
VIRGINIA BEACH MOCLDY    36  32  85 E3        29.85F
NORFOLK NAVAL  MOCLDY    41  32  70 SE5       29.86F
WEST POINT*    CLOUDY    42  33  70 SE5       29.86F
SALUDA*        FAIR      39  33  79 S9        29.85F
NEWPORT NEWS   CLOUDY    41  33  73 CALM      29.85F
LANGLEY AFB    CLOUDY    39  34  81 SE5       29.85F
FORT EUSTIS    MOCLDY    39  35  85 S5        29.82F
WILLIAMSBURG*    N/A     43  37  81 SE7       29.84F
HR EXEC AP*    FAIR      30  27  86 E5        29.87F
FRANKLIN*      PTCLDY    32  31  97 CALM      29.84F
WAKEFIELD      MOCLDY    37  33  85 CALM      29.83F
$$

VAZ020-022-025-037-045-260700-
WEST CENTRAL AND SOUTHWEST VIRGINIA

CITY           SKY/WX    TMP DP  RH WIND       PRES   REMARKS
STAUNTON*      CLOUDY    37  32  85 CALM      29.76F
WAYNESBORO*    CLOUDY    40  32  72 SE5       29.73F
HOT SPRINGS VA CLOUDY    33  31  94 SE3       29.63F
LYNCHBURG      CLOUDY    42  33  70 CALM      29.74F
DANVILLE       CLOUDY    46  33  60 VRB5      29.73F
SOUTH BOSTON*  CLOUDY    43  33  65 CALM      29.75F
MARTINSVILLE   RAIN      44  35  71 CALM      29.73F
ROANOKE        CLOUDY    43  31  62 SE7       29.72F
BLACKSBURG     CLOUDY    38  30  75 E6        29.69F
DUBLIN*        CLOUDY    38  32  81 CALM      29.67F
MARION*        CLOUDY    40  30  67 CALM      29.67F
HILLSVILLE*    CLOUDY    40  31  69 S6        29.65F
RICHLANDS*     FAIR      41  29  62 S3        29.63F
WISE*          CLOUDY    39  32  75 S5        29.63F
ABINGDON*      MOCLDY    40  34  77 CALM      29.64F
$$

MDZ021>025-VAZ099-100-260700-
SOUTHERN MARYLAND AND THE DELMARVA PENINSULA

CITY           SKY/WX    TMP DP  RH WIND       PRES   REMARKS
PATUXENT RIVER CLOUDY    41  33  73 SE6       29.85F
BAY BRIDGE APT   N/A     41  32  70 CALM      29.87S
LEONARDTOWN    CLOUDY    41  32  70 SE5       29.86S
DOVER          CLOUDY    39  35  86 NE6       29.88R
GEORGETOWN     CLOUDY    41  33  73 SE6       29.88F
EASTON         CLOUDY    43  35  73 S6        29.90S
CAMBRIDGE      CLOUDY    43  34  70 SE7       29.87S
SALISBURY      CLOUDY    44  35  70 SE7       29.87F
OCEAN CITY     CLOUDY    41  36  82 SW5       29.90F
WALLOPS ISLAND CLOUDY    40  38  93 S6        29.89F
ACCOMACK*      CLOUDY    41  34  75 S3        29.87F
$$

NCZ012>017-030>032-260700-
NORTH CENTRAL AND EASTERN NORTH CAROLINA

CITY           SKY/WX    TMP DP  RH WIND       PRES   REMARKS
ROANOKE RAPIDS FAIR      34  34 100 CALM      29.80F
RALEIGH        MOCLDY    41  33  73 SE5       29.76F
ELIZABETH CITY PTCLDY    36  33  89 CALM      29.86F
AHOSKIE*       MOCLDY    33  32  96 CALM      29.83F
EDENTON*       PTCLDY    34  33  93 CALM      29.85F
CURRITUCK*     PTCLDY    36  33  91 CALM      29.87F
KILL DEVIL HLS PTCLDY    41  38  90 CALM      29.84F
MANTEO         PTCLDY    34  34 100 CALM      29.85F
CAPE HATTERAS  CLEAR     45  41  86 NE7       29.84F
TARBORO*       FAIR      36  35  96 CALM      29.82F
GOLDSBORO      CLOUDY    40  40  99 SE2       29.78F
WASHINGTON     PTCLDY    34  33  96 CALM      29.82F
GREENVILLE     CLOUDY    37  36  93 E3        29.83F
NEW BERN       MOCLDY    40  36  86 CALM      29.82F
WILMINGTON     PTCLDY    40  39  97 CALM      29.82F
$$

VAZ048-260700-
ELSEWHERE

CITY           SKY/WX    TMP DP  RH WIND       PRES   REMARKS
HARRISBURG PA  LGT SNOW  29  26  89 E10       29.90S WCI  20
BALTIMORE      LGT RAIN  40  33  76 NE12      29.86S
ANNAPOLIS      CLOUDY    41  32  70 E7        29.87S
ANDREWS AFB    CLOUDY    41  32  70 E6        29.83F
PHILADELPHIA   CLOUDY    32  26  78 NE13      29.96S WCI  22
HENDERSON NC   MOCLDY    41  33  72 S5        29.76F
GREENSBORO     CLOUDY    43  34  70 S5        29.71F
ROCKY MOUNT    MOCLDY    40  35  83 VRB3      29.80F
$$

VAZ100-260700-
MARINE

STATION/POSITION TIME  TEMP    WIND        PRES    WAVE   SWELL
                       AIR SEA DIR/SP/G            HT/PER HT/PER
                 (UTC) (F)     (DEG/KT/KT) (MB)    (FT/S) (FT/S)
BRANDYWINE LGT   0600   40 37   80/ 13/ 15 1012.5S
CAPE MAY NJ      0600   40 40   60/  4/  7 1012.1F
LEWES DE         0600   41 38  160/  3/  3 1011.9F
15NM E FENWICK I 0600   43 42              1011.9F   2/11
OCEAN-CITY-INLET 0600   41 40  200/  3/  5 1011.7F
WACHAPREAGUE VA  0600   41 42  220/  1/  2 1011.6F
THOMAS POINT MD  0600   41 37  100/  5/  5 1012.4R
GOOSES REEF MD   0600   40 37  VRB 12/ 14  1009.9F   1/ 3
COVE POINT MD    0600   39     180/ 12/ 13 1010.8F
SOLOMONS ISLAND  0600      39                N/A
BISHOPS HEAD MD  0600   40 40  140/ 11/ 13 1010.6S
PINEY POINT MD   0600          150/  6/  6   N/A
POTOMAC MD       0600   40 39  170/  8/ 10 1010.0F   1/ 3
CAMBRIDGE MD     0600   42 36  170/  7/  9 1011.2R
LEWISETTA VA     0600   42 39  170/  7/  8 1010.4F
RAPPAHANNOCK LGT 0600          140/ 10/ 11 1011.6F
STINGRAY PT      0600   40 39  170/  6/  8 1011.5F   1/ 2
YORK RVR RNG VA  0600   41     170/ 11/ 13 1010.3F
YORKTOWN VA      0600   41 41  140/  4/  5 1010.6F
JAMESTOWN VA     0600   40 41  120/  6/  8   N/A     0
DOMINION TERM VA 0600   41     140/  5/  6 1011.1F
KIPTOPEKE VA     0600      45  150/  8/ 10   N/A
CHES BAY BRIDGE  0600   42 42  130/  6/  7 1010.8F
CAPE HENRY VA    0600   42     150/  6/  6 1009.9F
CHESAPEAKE LGHT  0500   45     170/  7/  8 1012.6S
WILLOUBY STN VA  0600   41     140/  4/  5 1011.5S
S CRANEY ISL VA  0600           CALM  /  2 1010.9F
CAPE HENRY BUOY  0500      44                N/A     2/10
1ST LANDING BUOY 0600   42 41  140/  6/  8 1010.6F   1/ 4
CAPE CHARLES BUO 0600      43                N/A     2/11   2/11
OFFSHORE WE BUOY 0600      47                N/A     3/ 9   2/ 9
64NM E OF VA BCH 0600   50 53  180/  8/  8 1011.0F   3/ 9   3/ 9
DUCK PIER NC     0600   42 44  150/  5/  5 1010.2F
44100 DUCK FRF   0600      44                N/A     2/ 9   2/11
44056 DUCK FRF   0600      43                N/A     2/10
OREGON INLET NC  0600   43 47   90/  4/  5 1010.8F
HATTERAS NC      0600   47 53   50/  4/  5 1010.7F



USA.gov is the U.S. government's official web portal to all federal, state and local government web resources and services.